Starlink 30355

operational
NORAD ID: 57777 Int'l Des: 2023-134 Owner: SPXS Country: US Constellation: starlink
LEOCIRCULAR

Starlink 30355について

説明を読み込み中...

リアルタイム位置

3D地球を読み込み中...

次回通過

高度履歴

Altitude vs Time

uPlot chart will show altitude changes over time

軌道要素

1 57777U 23134G 25306.34325209 .00000317 00000-0 38526-4 0 9999
2 57777 43.0023 169.5656 0001013 266.5880 93.4847 15.02537421120306
Epoch: Nov 2, 2025 • Age: 29 hours

現在のステータス

高度 563.1 km
速度 7.58 km/s
衛星直下点 -20.00°S, 95.14°W
打ち上げ日 Sep 4, 2023
運用期間 2.1 years
タイプ internet

技術仕様

分類 Payload
質量 730.00 kg
乾燥質量 700.00 kg
総質量 730.00 kg
長さ 0.30 m
直径 4.10 m
スパン 29.00 m
形状 Box + pan
製造者 SPXS
バスタイプ Starlink V2M
フェーズステータス In Orbit
所有者/国 SPXS/US

大規模コンステレーション

Loading constellations...